Seaglider Canopus on mission DY033

  • Deployed: 2015/07/16 00:00:00 UTC (1580 days ago)
  • Recovered: 2015/08/22 00:00:00 UTC (1543 days ago)

Near Real-Time Data

 
cdom
chlor
density
oxygen
potential_temperature
salinity

Communication Log

# Updated Depth Speed Plots
1234520 2015-08-22 08:46:40 UTC (1543 days ago)
1234519 2015-08-22 08:32:05 UTC (1543 days ago)
1234518 2015-08-22 08:19:05 UTC (1543 days ago)
1234517 2015-08-22 08:06:23 UTC (1543 days ago)
1234516 2015-08-22 07:51:23 UTC (1543 days ago)
1234515 2015-08-22 07:38:22 UTC (1543 days ago)
1234514 2015-08-22 07:25:35 UTC (1543 days ago)
1234513 2015-08-22 07:13:05 UTC (1543 days ago)
1234512 2015-08-22 07:00:35 UTC (1543 days ago)
1234511 2015-08-22 06:50:35 UTC (1543 days ago)
1234510 2015-08-22 06:41:01 UTC (1543 days ago)
1234509 2015-08-22 06:34:58 UTC (1543 days ago)
198013 2015-08-22 06:10:45 UTC (1543 days ago)
1234508 2015-08-22 06:04:35 UTC (1543 days ago)
198236 2015-08-22 05:38:57 UTC (1543 days ago)
1234507 2015-08-22 05:32:29 UTC (1543 days ago)
1234506 2015-08-22 05:17:29 UTC (1543 days ago)
1234505 2015-08-22 05:09:29 UTC (1543 days ago)
198337 2015-08-22 04:42:51 UTC (1543 days ago)
1234504 2015-08-22 04:32:05 UTC (1543 days ago)